Regional Weather Roundup
Issued by NWS

Home | Current Version | Previous Version | Text Only | Print | Product List | Glossary Off
Versions: 1 2 3 4 5 6 7 8 9 10 11 12 13 14 15 16 17 18 19 20 21 22 23 24 25 26 27 28 29 30 31 32 33 34 35 36 37 38 39 40 41 42 43 44 45 46 47 48 49 50

000
ASUS43 KOAX 261902
RWRNE

WEATHER ROUNDUP FOR NEBRASKA
NATIONAL WEATHER SERVICE OMAHA NE
100 PM CST FRI DEC 26 2014

NOTES: SATELLITE DATA IS BEING USED TO AUGMENT CLOUD COVER ABOVE
       12000 FEET.
       "FAIR" INDICATES FEW OR NO CLOUDS BELOW 12,000 FEET WITH NO
       SIGNIFICANT WEATHER AND/OR OBSTRUCTIONS TO VISIBILITY.

  * THESE STATIONS DO NOT REPORT WEATHER SUCH AS RAIN...SNOW OR FOG.

NEZ001>004-019>022-054>056-262000-
NEBRASKA PANHANDLE

CITY           SKY/WX    TMP DP  RH WIND       PRES   REMARKS
SCOTTSBLUFF    LGT SNOW  21  16  81 N3        30.03F VSB 3/4
ALLIANCE       CLOUDY    18  14  84 N15       30.01F WCI   4
CHADRON        FLURRIES  21  15  78 NE8       30.07F WCI  11
KIMBALL        LGT SNOW  17  13  84 N7        29.94F WCI   8
SIDNEY         LGT SNOW  18  13  80 N12       29.98F VSB 1   WCI   5
$$

NEZ057>060-069>072-079>082-262000-
SOUTHWEST NEBRASKA

CITY           SKY/WX    TMP DP  RH WIND       PRES   REMARKS
NORTH PLATTE   SNOW      24  20  84 N12       30.02F VSB 1/2 WCI  13
IMPERIAL       LGT SNOW  22  18  85 N16       30.00F VSB 1   WCI   8
LEXINGTON      CLOUDY    28  20  73 N17       30.00F WCI  15
MCCOOK         CLOUDY    26  20  77 N14       30.01F WCI  14
OGALLALA       LGT SNOW  22  19  85 N13G18    30.01F WCI  10
$$

NEZ005>010-023>029-035>040-094-262000-
NORTH CENTRAL NEBRASKA

CITY           SKY/WX    TMP DP  RH WIND       PRES   REMARKS
VALENTINE      CLOUDY    22  17  81 N15       30.06F WCI   9
AINSWORTH      LGT SNOW  22  19  89 N17       30.04F WCI   8
BROKEN BOW     LGT SNOW  26  20  77 N15       30.01F WCI  14
O`NEILL        CLOUDY    24  23  94 N14       30.05R WCI  12
ORD            CLOUDY    27  19  72 N16       30.01F WCI  15
THEDFORD       LGT SNOW  24  20  87 N12       30.03S WCI  13
$$

NEZ041-046>049-061>064-073>077-083>087-262000-
SOUTH CENTRAL NEBRASKA

CITY           SKY/WX    TMP DP  RH WIND       PRES   REMARKS
GRAND ISLAND   CLOUDY    29  21  72 N15       30.00F WCI  18
AURORA         CLOUDY    29  24  81 N18       29.98F WCI  17
HASTINGS       CLOUDY    29  22  75 N14       29.98F WCI  18
HEBRON         CLOUDY    31  26  83 N16G23    29.96F WCI  20
HOLDREGE       CLOUDY    27  22  79 N15G21    29.98F WCI  16
KEARNEY *      CLOUDY    27  19  74 N20       29.99F WCI  13
YORK           CLOUDY    28  27  93 N16G22    29.98F WCI  17
$$

NEZ011>018-030>034-042>045-262000-
NORTHEAST NEBRASKA

CITY           SKY/WX    TMP DP  RH WIND       PRES   REMARKS
NORFOLK        CLOUDY    28  24  85 N16       30.01R WCI  16
ALBION         CLOUDY    28  21  74 N15G23    30.00F WCI  17
BLAIR          CLOUDY    32  29  90 N14       29.96F WCI  22
COLUMBUS *     CLOUDY    28  21  74 N15       30.01F WCI  17
FREMONT        CLOUDY    33  29  86 N10G17    29.98F FOG     WCI  24
TEKAMAH        CLOUDY    33  28  81 N17       29.99S WCI  22
WAYNE          CLOUDY    29  26  86 N10       30.01R WCI  20
$$

NEZ050>053-065>068-078-088>093-262000-
SOUTHEAST NEBRASKA

CITY           SKY/WX    TMP DP  RH WIND       PRES   REMARKS
LINCOLN        CLOUDY    33  28  81 N15       29.99F WCI  23
OMAHA EPPLEY   CLOUDY    34  30  85 N12       29.98F WCI  25
BEATRICE       CLOUDY    32  30  90 N13       29.95S WCI  23
FALLS CITY     CLOUDY    36  31  82 NE8       29.94F WCI  30
NEBRASKA CITY  CLOUDY    34  33  97 NE12      29.94S FOG     WCI  26
PLATTSMOUTH    CLOUDY    33  30  90 N13       29.93F FOG     WCI  24
$$

NEZ044-045-051>053-067-262000-
OMAHA AREA

CITY           SKY/WX    TMP DP  RH WIND       PRES   REMARKS
OMAHA EPPLEY   CLOUDY    34  30  85 N12       29.98F WCI  25
BLAIR          CLOUDY    32  29  90 N14       29.96F WCI  22
FREMONT        CLOUDY    33  29  86 N10G17    29.98F FOG     WCI  24
MILLARD        CLOUDY    33  29  86 N10       29.96F WCI  25
OFFUTT AFB     CLOUDY    34  30  86 N10       29.95F WCI  26
PLATTSMOUTH    CLOUDY    33  30  90 N13       29.93F FOG     WCI  24
WAHOO          CLOUDY    32  28  83 N14       29.98F WCI  22
$$


USA.gov is the U.S. government's official web portal to all federal, state and local government web resources and services.